North Bend, OR

9:30 AM PDT on April 27, 2017 (GMT -0700)
North Bend Municipal

Weather History for KOTH - May, 2014

Change the Weather History Date:

Wednesday, May 14, 2014

  Actual Average Record
Temperature  
Mean Temperature 67 °F 53 °F  
Max Temperature 82 °F 59 °F 82 °F (2014)
Min Temperature 52 °F 47 °F 33 °F (1917)
Degree Days  
Heating Degree Days 0 12  
Month to date heating degree days 125 183  
Since 1 July heating degree days 3758 4369  
Cooling Degree Days 2 0  
Month to date cooling degree days 4 0  
Year to date cooling degree days 12 0  
Growing Degree Days 16 (Base 50)    
Moisture  
Dew Point 55 °F    
Average Humidity 72    
Maximum Humidity 0    
Minimum Humidity 0    
Precipitation  
Precipitation 0.00 in 0.11 in 1.18 in (1978)
Month to date precipitation 1.53 1.61  
Year to date precipitation 21.15 32.39  
Sea Level Pressure  
Sea Level Pressure 30.12 in    
Wind  
Wind Speed 4 mph (SW)    
Max Wind Speed 12 mph    
Max Gust Speed -    
Visibility 10 miles    
Events      
T = Trace of Precipitation, MM = Missing Value Source: NWS Daily Summary

Daily Weather History Graph

Daily Weather History Graph

Search for Another Location

Airport or City:

Trip Planner

Search our weather history database for the weather conditions in past years. The results will help you decide how hot, cold, wet, or windy it might be!

Date:

Astronomy

May. 14, 2014 Rise Set
Actual Time 5:53 AM PDT 8:33 PM PDT
Civil Twilight 5:20 AM PDT 9:06 PM PDT
Nautical Twilight 4:39 AM PDT 9:48 PM PDT
Astronomical Twilight 3:52 AM PDT 10:35 PM PDT
Moon 8:44 PM PDT (5/14) 5:58 AM PDT (5/14)
Length of Visible Light 15h 46m
Length of Day
14h 40m
Full, 100% of the Moon is Illuminated
May 14
Full
May 14
Full
May 21
Last Quarter
May 28
New
Jun 5
First Quarter

Hourly Weather History & Observations

Time (PDT) Temp. Heat Index Dew Point Humidity Pressure Visibility Wind Dir Wind Speed Gust Speed Precip Events Conditions
12:15 AM 55.4 °F - 51.8 °F 88% 30.18 in 10.0 mi South 4.6 mph - N/A   Clear
12:35 AM 55.4 °F - 55.4 °F 100% 30.17 in 10.0 mi Calm Calm - N/A   Clear
12:55 AM 55.4 °F - 55.4 °F 100% 30.17 in 10.0 mi SE 3.5 mph - N/A   Clear
1:15 AM 55.4 °F - 53.6 °F 94% 30.17 in 10.0 mi SSE 3.5 mph - N/A   Clear
1:35 AM 55.4 °F - 55.4 °F 100% 30.17 in 10.0 mi East 3.5 mph - N/A   Clear
1:55 AM 55.4 °F - 55.4 °F 100% 30.17 in 10.0 mi Calm Calm - N/A   Clear
2:15 AM 55.4 °F - 53.6 °F 94% 30.16 in 10.0 mi Calm Calm - N/A   Clear
2:35 AM 55.4 °F - 53.6 °F 94% 30.16 in 10.0 mi Calm Calm - N/A   Clear
2:55 AM 53.6 °F - 53.6 °F 100% 30.15 in 10.0 mi Calm Calm - N/A   Clear
3:15 AM 53.6 °F - 53.6 °F 100% 30.15 in 10.0 mi ESE 4.6 mph - N/A   Clear
3:35 AM 55.4 °F - 53.6 °F 94% 30.15 in 10.0 mi Calm Calm - N/A   Clear
3:55 AM 53.6 °F - 53.6 °F 100% 30.14 in 10.0 mi Calm Calm - N/A   Clear
4:15 AM 53.6 °F - 51.8 °F 94% 30.14 in 10.0 mi Calm Calm - N/A   Clear
4:35 AM 53.6 °F - 53.6 °F 100% 30.13 in 10.0 mi SE 3.5 mph - N/A   Clear
4:55 AM 53.6 °F - 53.6 °F 100% 30.13 in 10.0 mi Calm Calm - N/A   Clear
5:15 AM 53.6 °F - 51.8 °F 94% 30.13 in 10.0 mi Calm Calm - N/A   Clear
5:35 AM 51.8 °F - 51.8 °F 100% 30.13 in 10.0 mi SSE 4.6 mph - N/A   Clear
5:55 AM 53.6 °F - 51.8 °F 94% 30.13 in 10.0 mi Calm Calm - N/A   Clear
6:15 AM 53.6 °F - 53.6 °F 100% 30.13 in 10.0 mi Calm Calm - N/A   Clear
6:35 AM 53.6 °F - 51.8 °F 94% 30.13 in 10.0 mi NNE 3.5 mph - N/A   Clear
6:55 AM 55.4 °F - 53.6 °F 94% 30.14 in 10.0 mi NE 3.5 mph - N/A   Clear
8:15 AM 64.4 °F - 57.2 °F 77% 30.13 in 10.0 mi Calm Calm - N/A   Clear
8:35 AM 66.2 °F - 57.2 °F 73% 30.12 in 10.0 mi Calm Calm - N/A   Clear
8:55 AM 73.4 °F - 55.4 °F 53% 30.12 in 10.0 mi ESE 4.6 mph - N/A   Clear
9:15 AM 75.2 °F - 55.4 °F 50% 30.12 in 10.0 mi SE 4.6 mph - N/A   Clear
9:35 AM 77.0 °F - 53.6 °F 44% 30.11 in 9.0 mi East 3.5 mph - N/A   Clear
9:55 AM 80.6 °F 80.5 °F 55.4 °F 42% 30.11 in 9.0 mi SE 3.5 mph - N/A   Clear
10:15 AM 80.6 °F - 51.8 °F 37% 30.11 in 10.0 mi Calm Calm - N/A   Clear
10:35 AM 78.8 °F - 55.4 °F 44% 30.11 in 10.0 mi Calm Calm - N/A   Clear
10:55 AM 80.6 °F 80.5 °F 55.4 °F 42% 30.10 in 10.0 mi West 6.9 mph - N/A   Clear
11:15 AM 78.8 °F - 55.4 °F 44% 30.10 in 10.0 mi West 8.1 mph - N/A   Clear
11:35 AM 80.6 °F 80.5 °F 55.4 °F 42% 30.10 in 10.0 mi West 10.4 mph - N/A   Clear
11:55 AM 78.8 °F - 53.6 °F 42% 30.10 in 10.0 mi West 9.2 mph - N/A   Clear
12:15 PM 78.8 °F - 55.4 °F 44% 30.11 in 10.0 mi WNW 9.2 mph - N/A   Clear
12:35 PM 77.0 °F - 57.2 °F 50% 30.11 in 10.0 mi West 10.4 mph - N/A   Clear
12:55 PM 75.2 °F - 59.0 °F 57% 30.10 in 10.0 mi West 9.2 mph - N/A   Clear
1:15 PM 77.0 °F - 57.2 °F 50% 30.10 in 10.0 mi West 6.9 mph - N/A   Clear
1:35 PM 78.8 °F - 53.6 °F 42% 30.10 in 10.0 mi West 9.2 mph - N/A   Clear
1:55 PM 75.2 °F - 57.2 °F 53% 30.10 in 10.0 mi West 11.5 mph - N/A   Clear
2:15 PM 71.6 °F - 57.2 °F 60% 30.10 in 9.0 mi West 11.5 mph - N/A   Clear
2:35 PM 73.4 °F - 55.4 °F 53% 30.11 in 10.0 mi West 8.1 mph - N/A   Clear
2:55 PM 73.4 °F - 55.4 °F 53% 30.11 in 10.0 mi West 6.9 mph - N/A   Clear
3:15 PM 73.4 °F - 55.4 °F 53% 30.11 in 10.0 mi West 9.2 mph - N/A   Clear
3:35 PM 73.4 °F - 57.2 °F 57% 30.11 in 10.0 mi WNW 8.1 mph - N/A   Clear
3:55 PM 73.4 °F - 55.4 °F 53% 30.10 in 10.0 mi WNW 8.1 mph - N/A   Clear
4:15 PM 73.4 °F - 55.4 °F 53% 30.10 in 10.0 mi WNW 5.8 mph - N/A   Clear
4:55 PM 71.6 °F - 57.2 °F 60% 30.10 in 10.0 mi WNW 5.8 mph - N/A   Clear
5:15 PM 71.6 °F - 55.4 °F 57% 30.10 in 10.0 mi West 4.6 mph - N/A   Clear
5:35 PM 69.8 °F - 55.4 °F 60% 30.10 in 10.0 mi West 8.1 mph - N/A   Clear
5:55 PM 69.8 °F - 55.4 °F 60% 30.09 in 10.0 mi West 8.1 mph - N/A   Clear
6:15 PM 69.8 °F - 55.4 °F 60% 30.09 in 10.0 mi West 9.2 mph - N/A   Clear
6:35 PM 68.0 °F - 57.2 °F 68% 30.09 in 10.0 mi West 8.1 mph - N/A   Clear
6:55 PM 68.0 °F - 57.2 °F 68% 30.09 in 10.0 mi West 5.8 mph - N/A   Clear
7:15 PM 66.2 °F - 57.2 °F 73% 30.09 in 10.0 mi Calm Calm - N/A   Clear
7:35 PM 68.0 °F - 57.2 °F 68% 30.09 in 10.0 mi Calm Calm - N/A   Clear
7:55 PM 68.0 °F - 55.4 °F 64% 30.09 in 10.0 mi Calm Calm - N/A   Clear
8:15 PM 68.0 °F - 53.6 °F 60% 30.09 in 10.0 mi Calm Calm - N/A   Clear
8:35 PM 66.2 °F - 53.6 °F 64% 30.10 in 10.0 mi East 4.6 mph - N/A   Clear
8:55 PM 64.4 °F - 55.4 °F 73% 30.10 in 10.0 mi Calm Calm - N/A   Clear
9:15 PM 64.4 °F - 55.4 °F 73% 30.10 in 10.0 mi SSE 3.5 mph - N/A   Clear
9:35 PM 60.8 °F - 55.4 °F 82% 30.10 in 10.0 mi SE 4.6 mph - N/A   Clear
9:55 PM 60.8 °F - 55.4 °F 82% 30.11 in 10.0 mi SE 4.6 mph - N/A   Clear
10:15 PM 60.8 °F - 55.4 °F 82% 30.10 in 10.0 mi SE 5.8 mph - N/A   Clear
10:35 PM 60.8 °F - 55.4 °F 82% 30.10 in 10.0 mi SSE 5.8 mph - N/A   Clear
10:55 PM 60.8 °F - 55.4 °F 82% 30.10 in 10.0 mi SE 4.6 mph - N/A   Clear
11:15 PM 59.0 °F - 55.4 °F 88% 30.10 in 10.0 mi SSE 6.9 mph - N/A   Clear
11:35 PM 59.0 °F - 55.4 °F 88% 30.11 in 10.0 mi Calm Calm - N/A   Clear
11:55 PM 60.8 °F - 55.4 °F 82% 30.11 in 9.0 mi Calm Calm - N/A   Clear